Location: Kile Knob Observatory
(38.6083°N, 79.4792°W)
Time: 09:07:32
(UTC-04:00)

Envisat - Visible Passes

Search period start: 21 May 2019 00:00
Search period end: 31 May 2019 00:00
Orbit: 764 x 766 km, 98.2° (Epoch: 21 May)

Date Brightness Start Highest point End Pass type
(mag) Time Alt. Az. Time Alt. Az. Time Alt. Az.
21 May 5.6 20:52:44 10° SW 20:56:32 21° W 21:00:21 10° NW visible
23 May 6.0 21:20:45 10° WSW 21:22:19 11° W 21:23:54 10° WNW visible
26 May 5.8 21:08:08 10° SW 21:10:58 15° W 21:13:49 10° WNW visible
